Meteo Giornale » Osservazioni meteo Gran Bretagna » Tees-Side

ore: 21:50 - Osservazioni Meteo Tees-Side
Lat. 54° 31' N Lon. 1° 25' W Alt. 37 metri s.l.m.

sereno Europe/London

17 °C

Sereno

Temp. 24 Ore

8 °C

22 °C

Sud/Sud-Est

7.4 Km/h

Dew point 11 °C

Umidità 67 %

Visibilità  10 Km

Il sole sorge alle ore 04:52

Il sole tramonta alle ore 21:31

Data e Ora Cielo e Fenomeni T °C DP °C Um. % Pres. hPa Vis. km Vento km/h
Ieri h: 21:50 sereno Sereno 17 11 67 1018 10 S/SE 7.4
Ieri h: 21:20 sereno Sereno 18 12 67 1018 10 S 9.3
Ieri h: 20:50 sereno Sereno 19 11 59 1018 10 S 7.4
Ieri h: 20:20 sereno Sereno 20 11 56 1018 10 N 5.5
Ieri h: 19:50 nuvoloso Nuvoloso 20 11 56 1018 10 S/SE 13
Ieri h: 19:20 poco_nuvoloso Poco Nuvoloso 21 10 49 1018 10 SO 9.3
Ieri h: 18:50 poco_nuvoloso Poco Nuvoloso 21 9 46 1018 10 S/SO 9.3
Ieri h: 18:20 poco_nuvoloso Poco Nuvoloso 21 9 46 1018 10 S/SO 9.3
Ieri h: 17:50 poco_nuvoloso Poco Nuvoloso 21 9 46 1018 10 N 5.5
Ieri h: 17:20 poco_nuvoloso Poco Nuvoloso 21 9 46 1017 10 O/SO 9.3
Ieri h: 16:50 poco_nuvoloso Poco Nuvoloso 22 9 43 1018 10 SO 9.3
Ieri h: 16:20 poco_nuvoloso Poco Nuvoloso 21 10 49 1018 10 SO 7.4
Ieri h: 15:50 poco_nuvoloso Poco Nuvoloso 21 9 46 1018 10 S/SO 13
Ieri h: 15:20 poco_nuvoloso Poco Nuvoloso 21 10 49 1017 10 S 14.8
Ieri h: 14:50 poco_nuvoloso Poco Nuvoloso 21 10 49 1017 10 S 13
Ieri h: 14:20 poco_nuvoloso Poco Nuvoloso 21 10 49 1017 10 S 16.7
Ieri h: 13:50 poco_nuvoloso Poco Nuvoloso 21 10 49 1017 10 S/SE 13
Ieri h: 13:20 poco_nuvoloso Poco Nuvoloso 21 10 49 1017 10 S 13
Ieri h: 12:50 poco_nuvoloso Poco Nuvoloso 21 8 43 1017 10 SO 14.8
Ieri h: 12:20 poco_nuvoloso Poco Nuvoloso 20 9 49 1017 10 S/SO 14.8
Ieri h: 11:50 poco_nuvoloso Poco Nuvoloso 20 10 52 1017 10 S 11.1
Ieri h: 11:20 poco_nuvoloso Poco Nuvoloso 20 10 52 1017 10 N 9.3
Ieri h: 10:50 poco_nuvoloso Poco Nuvoloso 19 10 55 1017 10 SO 11.1
Ieri h: 10:20 poco_nuvoloso Poco Nuvoloso 19 10 55 1018 10 SO 7.4
Ieri h: 09:50 sereno Sereno 18 10 59 1018 10 S/SO 9.3
Ieri h: 09:20 sereno Sereno 17 9 59 1018 10 S 9.3
Ieri h: 08:50 sereno Sereno 16 9 63 1018 10 S 9.3
Ieri h: 08:20 sereno Sereno 15 9 67 1018 10 S/SO 11.1
Ieri h: 07:50 sereno Sereno 13 8 71 1018 10 S 7.4
Ieri h: 07:20 sereno Sereno 12 8 76 1017 10 S/SO 9.3
Ieri h: 06:50 sereno Sereno 10 8 87 1017 10 S/SO 13
Ieri h: 06:20 sereno Sereno 9 8 93 1017 10 S/SO 7.4
Ieri h: 05:50 sereno Sereno 8 7 93 1017 10 S/SO 9.3